| time (UTC) | temp C | wind direction | speed KPH | gust KPH | rain 1hr cm | rain 24hr cm | rain mn cm | humidity % | barometer mb |
| 20260506091639 | 7 | 250 | 32.2 | 41.8 | 0.00 | 0.00 | 0.00 | 93 | |
| 20260506081639 | 7 | 250 | 32.2 | 41.8 | 0.00 | 0.00 | 0.00 | 99 | |
| 20260506071639 | 7 | 260 | 35.4 | 49.9 | 0.00 | 0.00 | 0.00 | 99 | |
| 20260506061640 | 7 | 250 | 33.8 | 45.1 | 0.00 | 0.00 | 0.00 | 99 | |
| 20260506041839 | 7 | 260 | 41.8 | 53.1 | 0.00 | 0.00 | 0.00 | 93 | |
| 20260506031640 | 7 | 260 | 38.6 | 49.9 | 0.00 | 0.00 | 0.00 | 93 | |
| 20260506021639 | 7 | 260 | 37.0 | 48.3 | 0.00 | 0.00 | 0.00 | 93 | |
| 20260506011740 | 7 | 250 | 37.0 | 49.9 | 0.00 | 0.00 | 0.00 | 93 | |
| 20260506001639 | 7 | 250 | 27.4 | 40.2 | 0.00 | 0.00 | 0.00 | 93 | |
| 20260505231639 | 7 | 260 | 25.7 | 0.0 | 0.00 | 0.00 | 0.00 | 93 | |
| 20260505221638 | 7 | 260 | 20.9 | 0.0 | 0.00 | 0.00 | 0.00 | 99 | |
| 20260505211656 | 7 | 310 | 19.3 | 0.0 | 0.00 | 0.00 | 0.00 | 99 | |
| 20260505201655 | 7 | 260 | 45.1 | 62.8 | 0.00 | 0.00 | 0.00 | 99 | |
| 20260505191656 | 10 | 70 | 22.5 | 0.0 | 0.00 | 0.00 | 0.00 | 93 | |
| 20260505181639 | 10 | 60 | 16.1 | 27.4 | 0.00 | 0.00 | 0.00 | 93 | |
| 20260505171639 | 10 | 30 | 22.5 | 0.0 | 0.00 | 0.00 | 0.00 | 99 | |
| 20260505161739 | 10 | 20 | 20.9 | 0.0 | 0.00 | 0.00 | 0.00 | 99 | |
| 20260505151638 | 11 | 30 | 16.1 | 0.0 | 0.00 | 0.00 | 0.00 | 93 | |
| 20260505121639 | 13 | 360 | 16.1 | 0.0 | 0.00 | 0.00 | 0.00 | 71 | |
| 20260505111638 | 12 | 360 | 19.3 | 0.0 | 0.00 | 0.00 | 0.00 | 81 | |
| 20260505101639 | 16 | 90 | 11.3 | 0.0 | 0.00 | 0.00 | 0.00 | 67 |